Hourly Data Report for July 10, 2021

FLIN FLON
MANITOBA
Current Station Operator: ECCC - MSC

54°41'00.000" N
101°41'00.000" W
303.90 m
5050919
71954
WFO

Download Data

Hourly Data (July 2021)
Hourly Data Report for July 10, 2021
TIME
LST
Temp Definition
°C
Dew Point Definition
°C
Rel Hum Definition
%
Precip. Amount Definition
mm

Wind Dir Definition
10's deg

Wind Spd Definition
km/h
Visibility Definition
km
Stn Press Definition
kPa
Hmdx Definition


Wind Chill Definition


Weather Definition


00:00 20.2 17.2 83 0.0 29 1   97.78 26   LegendNANA
01:00 18.2 15.2 83 0.0   0   97.78     LegendNANA
02:00 17.8 15.5 87 0.0 3 4   97.80     LegendNANA
03:00 16.5 14.2 86 0.0 1 3   97.85     LegendNANA
04:00 15.9 13.5 86 0.0 6 3   97.88     LegendNANA
05:00 17.4 15.8 91 0.0 5 4   97.91     LegendNANA
06:00 19.3 16.8 85 0.0 5 5   97.95     LegendNANA
07:00 21.4 17.5 79 0.0 6 2   97.96 27   LegendNANA
08:00 24.0 15.4 59 0.0 0 1   97.97 28   LegendNANA
09:00 25.9 13.4 46 0.0 11 4   98.00 29   LegendNANA
10:00 27.8 11.5 36 0.0 19 8   98.00 30   LegendNANA
11:00 28.7 10.7 33 0.0 18 7   97.98 30   LegendNANA
12:00 30.0 10.6 30 0.0 19 11   97.97 32   LegendNANA
13:00 30.6 11.2 30 0.0 19 11   97.91 32   LegendNANA
14:00 31.3 11.8 30 0.0 19 11   97.88 33   LegendNANA
15:00 31.9 11.9 29 0.0 17 9   97.82 34   LegendNANA
16:00 31.8 12.4 31 0.0 17 10   97.79 34   LegendNANA
17:00 32.3 12.1 29 0.0 13 6   97.77 35   LegendNANA
18:00 32.2 13.1 31 0.0 18 8   97.72 35   LegendNANA
19:00 30.8 16.0 41 0.0 17 7   97.69 35   LegendNANA
20:00 28.9 16.9 48 0.0 17 5   97.68 34   LegendNANA
21:00 27.6 15.3 47 0.0 12 5   97.66 32   LegendNANA
22:00 26.5 15.2 50 0.0 15 4   97.65 31   LegendNANA
23:00 25.5 16.9 59 0.0 18 6   97.64 31   LegendNANA

Notes on Data Quality.

Legend

  • E = Estimated
  • M = Missing
  • NA = Not Available*
  • [empty] = Indicates an unobserved value
Date modified: